Flag for Russia Weather past 2 weeks in Barnaul, Russia

Now
55 °F

Passing clouds.


Feels Like: 53 °F
Forecast: 53 / 63 °F
Wind: 8 mph from West

Location: Barnaul Airport

Current Time: Jul 30, 2014 at 6:32:25 AM

Latest Report: Jul 30, 2014 at 5:30 AM


Visibility: N/A

Pressure: 29.74 "Hg

Humidity: 88%

Dew point: 52 °F

Location of BarnaulLocation

Historic Weather in Barnaul — Graph

°F

Barnaul temperature yesterday

Maximum temperature yesterday: 59 °F (at 12:30 PM)
Minimum temperature yesterday: 54 °F (at 4:30 AM)
Average temperature yesterday: 57 °F

Past Weeks' High & Low Weather Summary

 TemperatureHumidityPressure
High90 °F (Jul 21, 2:30 PM)100% (Jul 28, 6:00 AM)29.86 "Hg (Jul 28, 6:00 AM)
Low52 °F (Jul 28, 4:30 AM)22% (Jul 21, 3:30 PM)29.24 "Hg (Jul 29, 4:30 AM)
Average66 °F66%29.63 "Hg
* Reported Jul 15 5:00 AM — Jul 30 5:30 AM, Barnaul, Weather by CustomWeather, © 2014

Note: Actual official high and low records may vary slightly from our data, if they occured in-between our weather recording intervals... More about our weather records

Advertising

Barnaul weather history for previous 24 hours

 ConditionsComfort  
Time TempWeatherWind HumidityBarometerVisibility
5:30 AM
Jul 30
55 °FPassing clouds.8 mph88%29.74 "HgN/A
5:00 AM55 °FPassing clouds.10 mph88%29.74 "HgN/A
4:30 AM55 °FPassing clouds.8 mph94%29.71 "HgN/A
4:00 AM55 °FPassing clouds.10 mph94%29.71 "HgN/A
3:30 AM55 °FPassing clouds.10 mph94%29.71 "HgN/A
3:00 AM55 °FPassing clouds.8 mph94%29.68 "HgN/A
2:30 AM57 °FPassing clouds.10 mph88%29.68 "HgN/A
2:00 AM57 °FPassing clouds.10 mph88%29.68 "HgN/A
1:30 AM57 °FPassing clouds.10 mph88%29.68 "HgN/A
1:00 AM57 °FPassing clouds.13 mph88%29.65 "HgN/A
12:30 AM57 °FPassing clouds.10 mph88%29.65 "HgN/A
12:00 AM57 °FPassing clouds.10 mph88%29.65 "HgN/A
11:30 PM
Jul 29
57 °FPassing clouds.10 mph88%29.65 "HgN/A
11:00 PM57 °FPassing clouds.10 mph88%29.65 "HgN/A
10:30 PM57 °FPassing clouds.10 mph88%29.62 "HgN/A
10:00 PM57 °FPartly sunny.8 mph94%29.62 "HgN/A
9:30 PM57 °FPartly sunny.8 mph94%29.59 "HgN/A
9:00 PM57 °FPartly sunny.8 mph94%29.59 "HgN/A
8:30 PM57 °FLight rain. Overcast.13 mph94%29.56 "HgN/A
8:00 PM57 °FLight rain. Overcast.13 mph94%29.53 "HgN/A
7:30 PM57 °FLight rain. More clouds than sun.13 mph94%29.53 "HgN/A
7:00 PM57 °FLight rain. More clouds than sun.13 mph94%29.50 "HgN/A
6:30 PM59 °FLight rain. More clouds than sun.13 mph94%29.47 "HgN/A
6:00 PM59 °FLight rain. More clouds than sun.10 mph94%29.47 "HgN/A
5:30 PM59 °FLight rain. More clouds than sun.13 mph88%29.45 "HgN/A
5:00 PM59 °FSprinkles. Partly sunny.10 mph88%29.45 "HgN/A
4:30 PM59 °FSprinkles. Partly sunny.10 mph88%29.42 "HgN/A
4:00 PM59 °FSprinkles. Partly sunny.13 mph88%29.39 "HgN/A
3:30 PM59 °FPartly sunny.10 mph88%29.39 "HgN/A
3:00 PM59 °FSprinkles. Partly sunny.8 mph88%29.36 "HgN/A
2:30 PM59 °FSprinkles. Broken clouds.8 mph88%29.36 "HgN/A
2:00 PM59 °FSprinkles. Broken clouds.8 mph82%29.33 "HgN/A
1:30 PM59 °FSprinkles. Partly sunny.10 mph88%29.33 "HgN/A
1:00 PM59 °FPartly sunny.8 mph88%29.33 "HgN/A
12:30 PM59 °FBroken clouds.8 mph88%29.30 "HgN/A
12:00 PM57 °FBroken clouds.6 mph94%29.30 "HgN/A
11:30 AM57 °FLight rain. Partly sunny.3 mph94%29.30 "HgN/A
11:00 AM55 °FLight rain. More clouds than sun.1 mph94%29.30 "HgN/A
10:30 AM55 °FLight rain. More clouds than sun.3 mph94%29.30 "Hg6 mi
10:00 AM55 °FLight rain. More clouds than sun.1 mph94%29.30 "HgN/A
9:30 AM55 °FSprinkles. More clouds than sun.No wind94%29.30 "HgN/A
9:00 AM54 °FLight rain. More clouds than sun.6 mph100%29.27 "HgN/A
8:30 AM54 °FLight rain. Fog.8 mph100%29.27 "Hg2 mi
8:00 AM54 °FLight rain. Mostly cloudy.3 mph100%29.27 "Hg4 mi
7:30 AM55 °FLight rain. Fog.8 mph94%29.27 "Hg3 mi
7:00 AM55 °FLight rain. Low clouds.6 mph94%29.27 "Hg6 mi
6:30 AM55 °FLight rain. Passing clouds.8 mph94%29.27 "HgN/A
6:00 AM55 °FLight rain. Passing clouds.6 mph94%29.27 "HgN/A
Weather by CustomWeather, © 2014

See weather overviewHow to use our weather pages